Location: Newark
(45.5867°N, 8.8515°E)
Time: 15:25:26
(UTC+00:00)

Starlink Launch 2 trailer - Visible Passes

Search period start: 08 December 2019 00:00
Search period end: 18 December 2019 00:00
Orbit: 279 x 281 km, 53.0° (Epoch: 13 November)

Date Brightness Start Highest point End Pass type
(mag) Time Alt. Az. Time Alt. Az. Time Alt. Az.
08 Dec 2.1 05:21:39 59° W 05:21:59 75° SSW 05:24:26 10° SE visible
09 Dec 3.0 05:23:44 35° SW 05:23:52 35° SW 05:26:09 10° SSE visible
10 Dec 4.2 05:25:53 19° SW 05:25:53 19° SW 05:27:31 10° S visible
